Time,TemperatureF,DewpointF,PressureIn,WindDirection,WindDirectionDegrees,WindSpeedMPH,WindSpeedGustMPH,Humidity,HourlyPrecipIn,Conditions,Clouds,dailyrainin,SoftwareType,DateUTC
2013-08-14 00:12:00,72.0,69.0,29.73,WSW,257,0.0,0.0,89,0.00,,,0.47,,2013-08-14 04:12:00,
2013-08-14 00:23:00,72.0,69.0,29.73,WSW,257,0.0,0.0,89,0.00,,,0.47,,2013-08-14 04:23:00,
2013-08-14 00:42:00,72.0,69.0,29.73,WSW,257,0.0,0.0,89,0.00,,,0.44,,2013-08-14 04:42:00,
2013-08-14 00:52:00,72.0,69.0,29.74,WSW,257,0.0,0.0,89,0.00,,,0.44,,2013-08-14 04:52:00,
2013-08-14 01:12:00,72.0,69.0,29.74,WSW,257,0.0,0.0,89,0.00,,,0.44,,2013-08-14 05:12:00,
2013-08-14 01:22:00,72.0,69.0,29.74,WSW,257,0.0,0.0,89,0.00,,,0.44,,2013-08-14 05:22:00,
2013-08-14 01:42:00,72.0,68.0,29.73,WSW,257,0.0,0.0,88,0.00,,,0.01,,2013-08-14 05:42:00,
2013-08-14 01:52:00,72.0,68.0,29.73,WSW,257,0.0,0.0,87,0.00,,,0.01,,2013-08-14 05:52:00,
2013-08-14 02:11:00,72.0,68.0,29.74,WSW,257,0.0,0.0,87,0.00,,,0.01,,2013-08-14 06:11:00,
2013-08-14 02:21:00,72.0,68.0,29.74,WSW,257,0.0,0.0,87,0.00,,,0.01,,2013-08-14 06:21:00,
2013-08-14 02:42:00,72.0,68.0,29.74,WSW,257,0.0,0.0,87,0.00,,,0.00,,2013-08-14 06:42:00,
2013-08-14 02:52:00,72.0,68.0,29.74,WSW,257,0.0,0.0,86,0.00,,,0.00,,2013-08-14 06:52:00,
2013-08-14 03:11:00,72.0,68.0,29.74,WSW,257,0.0,0.0,86,0.00,,,0.00,,2013-08-14 07:11:00,
2013-08-14 03:21:00,72.0,67.0,29.74,WSW,257,0.0,0.0,84,0.00,,,0.00,,2013-08-14 07:21:00,
2013-08-14 03:42:00,72.0,67.0,29.75,WSW,257,0.0,0.0,84,0.00,,,0.00,,2013-08-14 07:42:00,
2013-08-14 03:52:00,72.0,67.0,29.74,WSW,257,0.0,0.0,83,0.00,,,0.00,,2013-08-14 07:52:00,
2013-08-14 04:11:00,72.0,67.0,29.75,WSW,257,0.0,0.0,83,0.00,,,0.00,,2013-08-14 08:11:00,
2013-08-14 04:21:00,71.0,65.0,29.75,WSW,257,0.0,0.0,82,0.00,,,0.00,,2013-08-14 08:21:00,
2013-08-14 04:42:00,71.0,65.0,29.75,WSW,257,0.0,0.0,82,0.00,,,0.00,,2013-08-14 08:42:00,
2013-08-14 04:52:00,71.0,65.0,29.75,WSW,257,0.0,0.0,82,0.00,,,0.00,,2013-08-14 08:52:00,
2013-08-14 05:11:00,71.0,65.0,29.76,West,259,0.0,0.0,81,0.00,,,0.00,,2013-08-14 09:11:00,
2013-08-14 05:21:00,71.0,65.0,29.76,West,259,0.0,0.0,81,0.00,,,0.00,,2013-08-14 09:21:00,
2013-08-14 05:43:00,71.0,65.0,29.76,West,259,0.0,0.0,80,0.00,,,0.00,,2013-08-14 09:43:00,
2013-08-14 05:53:00,71.0,65.0,29.77,West,259,0.0,0.0,80,0.00,,,0.00,,2013-08-14 09:53:00,
2013-08-14 06:12:00,71.0,65.0,29.77,West,259,0.0,0.0,80,0.00,,,0.00,,2013-08-14 10:12:00,
2013-08-14 06:23:00,70.0,64.0,29.78,West,259,0.0,0.0,80,0.01,,,0.01,,2013-08-14 10:23:00,
2013-08-14 06:32:00,70.0,64.0,29.78,West,259,0.0,0.0,80,0.01,,,0.01,,2013-08-14 10:32:00,
2013-08-14 06:42:00,70.0,64.0,29.78,West,259,0.0,0.0,80,0.01,,,0.01,,2013-08-14 10:42:00,
2013-08-14 06:52:00,70.0,64.0,29.80,West,259,0.0,0.0,80,0.01,,,0.01,,2013-08-14 10:52:00,
2013-08-14 07:11:00,70.0,64.0,29.80,West,259,0.0,0.0,80,0.01,,,0.01,,2013-08-14 11:11:00,
2013-08-14 07:21:00,70.0,64.0,29.81,West,259,0.0,0.0,80,0.00,,,0.01,,2013-08-14 11:21:00,
2013-08-14 07:42:00,70.0,64.0,29.82,West,259,0.0,0.0,81,0.00,,,0.01,,2013-08-14 11:42:00,
2013-08-14 07:52:00,70.0,64.0,29.83,West,259,0.0,0.0,81,0.00,,,0.01,,2013-08-14 11:52:00,
2013-08-14 08:11:00,70.0,64.0,29.84,West,259,0.0,0.0,81,0.00,,,0.01,,2013-08-14 12:11:00,
2013-08-14 08:21:00,69.0,63.0,29.84,West,259,0.0,0.0,81,0.00,,,0.01,,2013-08-14 12:21:00,
2013-08-14 08:42:00,69.0,63.0,29.85,West,259,0.0,0.0,82,0.00,,,0.01,,2013-08-14 12:42:00,
2013-08-14 08:52:00,69.0,63.0,29.85,West,259,0.0,0.0,82,0.00,,,0.01,,2013-08-14 12:52:00,
2013-08-14 09:11:00,70.0,64.0,29.86,West,259,0.0,0.0,82,0.00,,,0.01,,2013-08-14 13:11:00,
2013-08-14 09:22:00,70.0,64.0,29.87,West,259,0.0,0.0,82,0.00,,,0.01,,2013-08-14 13:22:00,
2013-08-14 09:52:00,70.0,64.0,29.88,West,259,0.0,0.0,82,0.00,,,0.01,,2013-08-14 13:52:00,
2013-08-14 10:11:00,70.0,64.0,29.88,WSW,257,0.0,0.0,80,0.00,,,0.01,,2013-08-14 14:11:00,
2013-08-14 10:22:00,71.0,64.0,29.88,ESE,117,0.0,0.0,79,0.00,,,0.01,,2013-08-14 14:22:00,
2013-08-14 10:42:00,71.0,64.0,29.89,West,261,0.0,0.0,78,0.00,,,0.01,,2013-08-14 14:42:00,
2013-08-14 10:52:00,71.0,63.0,29.89,SSE,148,0.0,0.0,77,0.00,,,0.01,,2013-08-14 14:52:00,
2013-08-14 11:12:00,70.0,62.0,29.90,SE,125,0.0,0.0,77,0.00,,,0.01,,2013-08-14 15:12:00,
2013-08-14 11:22:00,70.0,62.0,29.91,ESE,122,0.0,0.0,77,0.00,,,0.01,,2013-08-14 15:22:00,
2013-08-14 11:43:00,70.0,62.0,29.91,ESE,121,0.0,0.0,77,0.00,,,0.01,,2013-08-14 15:43:00,
2013-08-14 11:56:00,70.0,62.0,29.91,ESE,122,0.0,0.0,77,0.00,,,0.01,,2013-08-14 15:56:00,
2013-08-14 12:13:00,70.0,61.0,29.92,ESE,122,0.0,0.0,74,0.00,,,0.01,,2013-08-14 16:13:00,
2013-08-14 12:28:00,70.0,62.0,29.92,WSW,257,0.0,0.0,75,0.00,,,0.01,,2013-08-14 16:28:00,
2013-08-14 12:34:00,70.0,62.0,29.92,WSW,257,0.0,0.0,75,0.00,,,0.01,,2013-08-14 16:34:00,
2013-08-14 12:43:00,70.0,62.0,29.92,WSW,257,0.0,0.0,75,0.00,,,0.01,,2013-08-14 16:43:00,
2013-08-14 13:00:00,70.0,62.0,29.92,ESE,122,0.0,0.0,75,0.00,,,0.01,,2013-08-14 17:00:00,
2013-08-14 13:20:00,71.0,62.0,29.91,ESE,122,0.0,0.0,74,0.00,,,0.01,,2013-08-14 17:20:00,
2013-08-14 13:29:00,70.0,61.0,29.92,ESE,105,0.0,0.0,74,0.00,,,0.01,,2013-08-14 17:29:00,
2013-08-14 13:44:00,70.0,61.0,29.92,ESE,109,0.0,0.0,73,0.00,,,0.01,,2013-08-14 17:44:00,
2013-08-14 13:55:00,70.0,62.0,29.92,West,276,0.0,0.0,75,0.00,,,0.01,,2013-08-14 17:55:00,
2013-08-14 14:33:00,-999.0,-99.9,29.91,West,276,0.0,0.0,73,0.00,,,0.01,,2013-08-14 18:33:00,
2013-08-14 14:57:00,71.0,62.0,29.91,SE,124,0.0,0.0,73,0.00,,,0.01,,2013-08-14 18:57:00,
2013-08-14 15:03:00,-999.0,-99.9,29.91,SE,124,0.0,0.0,-999,-99.99,,,-99.99,,2013-08-14 19:03:00,
2013-08-14 15:15:00,72.0,62.0,29.91,SW,236,0.0,0.0,72,0.00,,,0.01,,2013-08-14 19:15:00,
2013-08-14 15:42:00,71.0,62.0,29.91,SSE,150,0.0,0.0,72,0.00,,,0.01,,2013-08-14 19:42:00,
2013-08-14 16:12:00,71.0,62.0,29.91,SSE,150,0.0,0.0,72,0.00,,,0.01,,2013-08-14 20:12:00,
2013-08-14 16:49:00,71.0,62.0,29.91,WSW,245,0.0,0.0,74,0.00,,,0.01,,2013-08-14 20:49:00,
2013-08-14 17:13:00,71.0,62.0,29.91,SSW,196,0.0,0.0,72,0.00,,,0.01,,2013-08-14 21:13:00,
2013-08-14 17:24:00,70.0,61.0,29.91,SSW,196,0.0,0.0,73,0.00,,,0.01,,2013-08-14 21:24:00,
2013-08-14 17:45:00,70.0,61.0,29.92,SSW,196,0.0,0.0,73,0.00,,,0.01,,2013-08-14 21:45:00,
2013-08-14 17:55:00,70.0,61.0,29.92,SSW,196,0.0,0.0,74,0.00,,,0.01,,2013-08-14 21:55:00,
2013-08-14 18:13:00,70.0,62.0,29.92,SSW,196,0.0,0.0,75,0.00,,,0.01,,2013-08-14 22:13:00,
2013-08-14 18:23:00,70.0,62.0,29.92,SSW,196,0.0,0.0,75,0.00,,,0.01,,2013-08-14 22:23:00,
2013-08-14 18:35:00,70.0,62.0,29.92,SSW,196,0.0,0.0,75,0.00,,,0.01,,2013-08-14 22:35:00,
2013-08-14 18:54:00,70.0,61.0,29.92,SSW,196,0.0,0.0,73,0.00,,,0.01,,2013-08-14 22:54:00,
2013-08-14 19:13:00,69.0,61.0,29.93,SSW,196,0.0,0.0,76,0.00,,,0.01,,2013-08-14 23:13:00,
2013-08-14 19:25:00,69.0,61.0,29.93,SSW,196,0.0,0.0,76,0.00,,,0.01,,2013-08-14 23:25:00,
2013-08-14 19:46:00,69.0,61.0,29.93,SSW,196,0.0,0.0,77,0.00,,,0.01,,2013-08-14 23:46:00,
2013-08-14 19:56:00,68.0,61.0,29.93,SSW,196,0.0,0.0,77,0.00,,,0.01,,2013-08-14 23:56:00,
2013-08-14 20:12:00,68.0,61.0,29.94,SSW,196,0.0,0.0,77,0.00,,,0.01,,2013-08-15 00:12:00,
2013-08-14 20:23:00,68.0,61.0,29.95,SSW,196,0.0,0.0,77,0.00,,,0.01,,2013-08-15 00:23:00,
2013-08-14 20:43:00,67.0,60.0,29.95,SSW,196,0.0,0.0,78,0.00,,,0.01,,2013-08-15 00:43:00,
2013-08-14 20:52:00,66.0,60.0,29.96,SSW,196,0.0,0.0,80,0.00,,,0.01,,2013-08-15 00:52:00,
2013-08-14 21:16:00,66.0,60.0,29.96,SSW,196,0.0,0.0,82,0.00,,,0.01,,2013-08-15 01:16:00,
2013-08-14 21:22:00,65.0,60.0,29.96,SSW,196,0.0,0.0,84,0.00,,,0.01,,2013-08-15 01:22:00,
2013-08-14 21:42:00,64.0,59.0,29.97,SSW,196,0.0,0.0,83,0.00,,,0.01,,2013-08-15 01:42:00,
2013-08-14 21:52:00,64.0,59.0,29.98,SSW,196,0.0,0.0,84,0.00,,,0.01,,2013-08-15 01:52:00,
2013-08-14 22:02:00,64.0,59.0,29.98,SSW,196,0.0,0.0,84,0.00,,,0.01,,2013-08-15 02:02:00,
2013-08-14 22:11:00,64.0,59.0,29.98,SSW,196,0.0,0.0,84,0.00,,,0.01,,2013-08-15 02:11:00,
2013-08-14 22:21:00,63.0,59.0,29.99,SSW,196,0.0,0.0,86,0.00,,,0.01,,2013-08-15 02:21:00,
2013-08-14 23:11:00,63.0,59.0,30.00,SSW,196,0.0,0.0,86,0.00,,,0.01,,2013-08-15 03:11:00,
2013-08-14 23:22:00,62.0,57.0,30.00,SSW,196,0.0,0.0,85,0.00,,,0.01,,2013-08-15 03:22:00,
2013-08-14 23:53:00,62.0,57.0,30.00,SSW,196,0.0,0.0,85,0.00,,,0.01,,2013-08-15 03:53:00,